Regional Weather Roundup
Issued by NWS

Home | Current Version | Previous Version | Graphics & Text | Print | Product List | Glossary Off
Versions: 1 2 3 4 5 6 7 8 9 10 11 12 13 14 15 16 17 18 19 20 21 22 23 24 25 26 27 28 29 30 31 32 33 34 35 36 37 38 39 40 41 42 43 44 45 46 47 48 49 50

000
ASUS43 KDMX 311607
RWRIA

WEATHER ROUNDUP FOR IOWA
NATIONAL WEATHER SERVICE DES MOINES IA
1100 AM CDT FRI JUL 31 2015

NOTE: "FAIR" INDICATES FEW OR NO CLOUDS BELOW 12,000 FEET WITH NO
SIGNIFICANT WEATHER AND/OR OBSTRUCTIONS TO VISIBILITY.

* - THESE STATIONS ARE NOT NWS STATIONS...THUS NOT UNDER NWS
QUALITY CONTROL.  THEY ALSO DO NOT REPORT WEATHER SUCH
AS PRECIPITATION OR FOG.

IAZ001>003-012>014-020>022-031>034-043>046-311700-
   NORTHWEST IOWA

CITY           SKY/WX    TMP DP  RH WIND       PRES   REMARKS
CARROLL *      SUNNY     79  70  73 CALM      30.14S HX  81
CHEROKEE *     SUNNY     81  64  57 NE5       30.15S HX  82
DENISON *      SUNNY     81  68  65 N6        30.13S HAZE    HX  83
LE MARS *      SUNNY     81  68  65 CALM      30.15S HX  83
ORANGE CITY *  SUNNY     79  59  50 NE5       30.16S HX  80
SHELDON *      SUNNY     77  61  57 N7        30.16S
SIOUX CITY     SUNNY     80  66  62 NE3       30.14S HX  82
SPENCER        SUNNY     80  58  46 N9        30.16S HX  80
STORM LAKE *   SUNNY     79  57  47 NE5       30.16F HX  80
$$

IAZ055>058-069>071-079>083-090>094-311700-
   SOUTHWEST IOWA

CITY           SKY/WX    TMP DP  RH WIND       PRES   REMARKS
ATLANTIC *     SUNNY     81  68  65 CALM      30.15S HX  83
AUDUBON *      SUNNY     82  68  61 NW5       30.16S HX  85
CLARINDA *     SUNNY     81  70  69 VRB5      30.16S HX  84
COUNCIL BLFS * SUNNY     84  72  65 SW10      30.14S HX  89
CRESTON *      SUNNY     79  68  69 NW7       30.17S HX  81
HARLAN  *      SUNNY     79  73  83 W3        30.18S HX  82
LAMONI         SUNNY     82  66  58 W6        30.14F HX  84
RED OAK *      SUNNY     82  70  65 W7        30.14F HX  86
SHENANDOAH *   SUNNY     81  70  69 W3        30.15S HX  84
$$

IAZ047>049-059>061-072>074-084-311700-
   CENTRAL IOWA

CITY           SKY/WX    TMP DP  RH WIND       PRES   REMARKS
AMES           SUNNY     84  61  45 N6        30.12S HX  84
ANKENY *       SUNNY     81  66  61 W3        30.12S HX  83
CHARITON *     SUNNY     81  68  65 W6        30.14S HX  83
DES MOINES     MOSUNNY   83  67  58 CALM      30.12S HX  85
GRINNELL*      SUNNY     81  61  50 NW6       30.12S HX  81
KNOXVILLE *    SUNNY     79  68  69 NW7       30.12S HX  81
MARSHALLTOWN     N/A     81  65  58 N7        30.11F HX  83
PELLA *        SUNNY     82  73  74 W5        30.13S HX  88
PERRY *          N/A     81  64  57 CALM      30.14R HX  82
$$

IAZ004>006-015-016-023>025-035-036-311700-
   NORTH CENTRAL IOWA

CITY           SKY/WX    TMP DP  RH WIND       PRES   REMARKS
ALGONA *       SUNNY     77  59  53 VRB5      30.15S
CLARION *      SUNNY     77  64  65 VRB6      30.14S
ESTHERVILLE    MOSUNNY   76  58  53 N6        30.16S
FORT DODGE *   SUNNY     79  64  61 N7        30.15S HX  81
MASON CITY     SUNNY     78  59  51 NW13      30.14S
FOREST CITY *  SUNNY     75  57  53 NW10      30.13F
IOWA FALLS *     N/A     79  63  57 NW6       30.14S HX  80
$$

IAZ007>011-017>019-026>030-037>042-050>054-066-311700-
   NORTHEAST IOWA

CITY           SKY/WX    TMP DP  RH WIND       PRES   REMARKS
CEDAR RAPIDS   SUNNY     80  67  64 NW7       30.09F HX  82
CHARLES CITY * SUNNY     77  59  53 NW12      30.12S
CLINTON *      SUNNY     81  63  54 NW12      30.09S HX  82
DECORAH *      SUNNY     75  55  50 NW13G21   30.09S
DUBUQUE        SUNNY     80  60  50 NW15      30.08F HX  81
MONTICELLO *   SUNNY     81  64  57 NW8G15    30.08S HX  82
OELWEIN *      SUNNY     77  61  57 NW13      30.11S
WATERLOO       SUNNY     80  63  55 NW9       30.09F HX  81
$$

IAZ064-065-067-068-078-311700-
   EAST CENTRAL IOWA

CITY           SKY/WX    TMP DP  RH WIND       PRES   REMARKS
DAVENPORT      SUNNY     82  64  54 NW10      30.08F HX  83
IOWA CITY      SUNNY     83  62  49 NW9       30.10F HX  84
MT. PLEASANT * SUNNY     84  61  45 NW6       30.11S HX  84
MUSCATINE *    SUNNY     82  66  57 NW7       30.09S HX  85
QUAD CITIES    SUNNY     85  61  44 NW10      30.07F HX  85
$$

IAZ062-063-075>077-085>089-095>099-311700-
   SOUTHEAST IOWA

CITY           SKY/WX    TMP DP  RH WIND       PRES   REMARKS
BURLINGTON     SUNNY     82  67  60 NW9       30.10S HX  84
FORT MADISON * SUNNY     81  70  69 NW10      30.12S HX  84
KEOKUK *       SUNNY     84  66  54 NW10G17   30.11S HX  86
OSKALOOSA *      N/A     81  66  61 W3        30.12S HX  83
CENTERVILLE *  SUNNY     81  66  61 W9        30.16S HX  83
OTTUMWA        SUNNY     80  68  66 NW3       30.10F HX  83
WASHINGTON *   SUNNY     82  66  57 NW7       30.12S HX  85
$$

ABBREVIATIONS USED IN REMARKS
   TC - TEMPERATURES IN CELSIUS
  WCI - WIND CHILL INDEX
   HX - HEAT INDEX
  VSB - VISIBILITY
$$



USA.gov is the U.S. government's official web portal to all federal, state and local government web resources and services.